�N����,����,�g�[���i���ԁj���x,�g�[�����x,��g�[���i���ցj���x,����
 2003/02/01, 0:00,-9.9,-9.9,-9.9,-9.9
 2003/02/01, 0:15,14.1,61.5,7,8
 2003/02/01, 0:30,16.3,61,6.7,8
 2003/02/01, 0:45,18.2,62,6.7,8.1
 2003/02/01, 1:00,17.9,60,6.7,8
 2003/02/01, 1:15,14.4,61.5,6.7,8.1
 2003/02/01, 1:30,13.1,65,6.5,8.1
 2003/02/01, 1:45,12.4,65,6.6,8.1
 2003/02/01, 2:00,11.9,65,6.6,8.1
 2003/02/01, 2:15,11.6,65,6.6,8.1
 2003/02/01, 2:30,11.2,65,6.6,8.1
 2003/02/01, 2:45,11,66,6.6,8.1
 2003/02/01, 3:00,10.8,66,6.6,8.2
 2003/02/01, 3:15,10.6,66,6.5,8.1
 2003/02/01, 3:30,10.5,66,6.5,8.2
 2003/02/01, 3:45,10.2,66.5,6.4,8.2
 2003/02/01, 4:00,10.1,67,6.4,8.2
 2003/02/01, 4:15,9.9,67,6.3,8.2
 2003/02/01, 4:30,9.8,67,6.4,8.2
 2003/02/01, 4:45,9.7,67,6.3,8.2
 2003/02/01, 5:00,9.6,67,6.4,8.2
 2003/02/01, 5:15,9.5,67,6.4,8.3
 2003/02/01, 5:30,9.4,67,6.4,8.3
 2003/02/01, 5:45,9.2,68,6.3,8.3
 2003/02/01, 6:00,9.2,68,6.4,8.3
 2003/02/01, 6:15,9.1,68,6.3,8.3
 2003/02/01, 6:30,9,68,6.3,8.3
 2003/02/01, 6:45,9,68,6.3,8.3
 2003/02/01, 7:00,8.9,68,6.3,8.3
 2003/02/01, 7:15,8.8,68,6.3,8.4
 2003/02/01, 7:30,8.8,68,6.3,8.3
 2003/02/01, 7:45,8.8,68,6.3,8.3
 2003/02/01, 8:00,8.8,68,6.4,8.4
 2003/02/01, 8:15,8.7,68,6.3,8.4
 2003/02/01, 8:30,11.4,69,6.4,8.4
 2003/02/01, 8:45,15.6,66.5,6.6,8.4
 2003/02/01, 9:00,16.9,69,6.9,8.4
 2003/02/01, 9:15,16.5,66.5,7.2,8.4
 2003/02/01, 9:30,15.6,65,7.5,8.4
 2003/02/01, 9:45,16.5,63,8.1,8.4
 2003/02/01,10:00,15.7,63,8.5,8.4
 2003/02/01,10:15,14.9,65,8.2,8.4
 2003/02/01,10:30,14.4,66,8.1,8.4
 2003/02/01,10:45,14.8,64.5,8.9,8.4
 2003/02/01,11:00,14.8,63,9.1,8.4
 2003/02/01,11:15,14.6,62.5,8.9,8.4
 2003/02/01,11:30,14.7,63,9.2,8.5
 2003/02/01,11:45,14.7,63,9.4,8.5
 2003/02/01,12:00,14.3,61,9.1,8.5
 2003/02/01,12:15,13.9,65,8.8,8.5
 2003/02/01,12:30,14,63,8.9,8.5
 2003/02/01,12:45,13.9,66,8.9,8.5
 2003/02/01,13:00,14.4,65,9.1,8.6
 2003/02/01,13:15,13.9,64,8.9,8.5
 2003/02/01,13:30,13.5,67,8.7,8.6
 2003/02/01,13:45,13.6,65.5,8.8,8.6
 2003/02/01,14:00,13.4,67,8.6,8.6
 2003/02/01,14:15,13,70.5,8.6,8.6
 2003/02/01,14:30,12.8,72,8.5,8.6
 2003/02/01,14:45,12.7,70.5,8.5,8.6
 2003/02/01,15:00,12.6,70,8.5,8.6
 2003/02/01,15:15,12.4,70,8.4,8.7
 2003/02/01,15:30,12.3,70,8.4,8.7
 2003/02/01,15:45,12.2,70,8.4,8.7
 2003/02/01,16:00,12.1,70,8.3,8.7
 2003/02/01,16:15,12.1,70,8.2,8.7
 2003/02/01,16:30,11.9,71,8.2,8.7
 2003/02/01,16:45,11.8,71,8.1,8.8
 2003/02/01,17:00,11.6,72,8.1,8.7
 2003/02/01,17:15,11.4,72.5,8.1,8.7
 2003/02/01,17:30,11.3,73,8,8.8
 2003/02/01,17:45,11.1,73,7.9,8.8
 2003/02/01,18:00,11.1,73,7.8,8.8
 2003/02/01,18:15,10.9,73,7.8,8.8
 2003/02/01,18:30,10.9,73,7.8,8.8
 2003/02/01,18:45,10.8,73,7.7,8.8
 2003/02/01,19:00,10.6,73,7.6,8.8
 2003/02/01,19:15,10.5,72.5,7.6,8.8
 2003/02/01,19:30,10.4,72,7.5,8.8
 2003/02/01,19:45,10.4,72,7.5,8.8
 2003/02/01,20:00,10.3,72,7.5,8.8
 2003/02/01,20:15,10.1,72,7.4,8.8
 2003/02/01,20:30,10.2,72,7.4,8.8
 2003/02/01,20:45,10,72,7.3,8.9
 2003/02/01,21:00,9.9,72,7.3,8.9
 2003/02/01,21:15,9.9,72,7.2,8.9
 2003/02/01,21:30,14.7,67,7.2,8.9
 2003/02/01,21:45,16.2,66.5,7.2,8.9
 2003/02/01,22:00,16.6,67,7.2,8.8
 2003/02/01,22:15,15.7,68,7.1,8.9
 2003/02/01,22:30,15.6,68,7,8.9
 2003/02/01,22:45,15.6,65,7,8.9
 2003/02/01,23:00,15.7,65,7,8.9
 2003/02/01,23:15,15.8,65,6.9,8.9
 2003/02/01,23:30,15.8,65,7,8.9
 2003/02/01,23:45,15.8,63.5,6.9,8.9
 2003/02/02, 0:00,14.2,65,7,8.9
 2003/02/02, 0:15,13.4,66,7,8.9
 2003/02/02, 0:30,12.8,66,6.9,8.9
 2003/02/02, 0:45,17.3,63,6.9,8.9
 2003/02/02, 1:00,16.7,61,6.8,8.9
 2003/02/02, 1:15,16.2,63,6.8,8.9
 2003/02/02, 1:30,15.9,58,6.8,8.9
 2003/02/02, 1:45,13.6,62,6.8,8.9
 2003/02/02, 2:00,12.9,65,6.7,8.9
 2003/02/02, 2:15,12.5,65.5,6.7,8.9
 2003/02/02, 2:30,12.2,66,6.7,8.9
 2003/02/02, 2:45,11.9,67,6.7,8.9
 2003/02/02, 3:00,11.6,67,6.7,8.9
 2003/02/02, 3:15,11.4,67.5,6.7,8.9
 2003/02/02, 3:30,11.1,68,6.7,8.9
 2003/02/02, 3:45,10.9,68,6.6,8.9
 2003/02/02, 4:00,10.8,68,6.6,8.9
 2003/02/02, 4:15,10.6,68.5,6.6,8.9
 2003/02/02, 4:30,10.5,69,6.6,8.9
 2003/02/02, 4:45,10.4,69,6.6,8.9
 2003/02/02, 5:00,10.2,69,6.6,8.9
 2003/02/02, 5:15,10.1,69,6.6,8.9
 2003/02/02, 5:30,9.9,69,6.6,8.9
 2003/02/02, 5:45,9.8,69,6.6,9
 2003/02/02, 6:00,9.6,69,6.5,9
 2003/02/02, 6:15,9.6,69,6.4,8.9
 2003/02/02, 6:30,9.5,69,6.4,9
 2003/02/02, 6:45,9.4,69,6.4,8.9
 2003/02/02, 7:00,9.2,69,6.4,9
 2003/02/02, 7:15,9.1,69,6.4,8.9
 2003/02/02, 7:30,9.1,69,6.4,9
 2003/02/02, 7:45,9.1,69,6.4,9
 2003/02/02, 8:00,9,69,6.4,9
 2003/02/02, 8:15,9.1,69,6.4,8.9
 2003/02/02, 8:30,9,69,6.4,9
 2003/02/02, 8:45,9,69,6.4,8.9
 2003/02/02, 9:00,9,69,6.6,9
 2003/02/02, 9:15,9.1,69,6.7,9
 2003/02/02, 9:30,9.1,69,6.8,9
 2003/02/02, 9:45,13.6,70,6.8,9
 2003/02/02,10:00,16,65,6.8,9
 2003/02/02,10:15,15.1,69,6.8,9
 2003/02/02,10:30,13.7,69,7,8.9
 2003/02/02,10:45,13.4,67,7.4,8.9
 2003/02/02,11:00,12.8,68,7.3,9
 2003/02/02,11:15,12.8,67,7.6,9
 2003/02/02,11:30,12.7,65,7.8,9
 2003/02/02,11:45,12.4,66.5,7.6,9
 2003/02/02,12:00,12.2,66,7.5,9
 2003/02/02,12:15,12.1,66.5,7.4,9
 2003/02/02,12:30,12,66,7.4,9
 2003/02/02,12:45,12,65,7.5,8.9
 2003/02/02,13:00,12.5,65,7.6,9
 2003/02/02,13:15,12.4,62.5,7.8,9
 2003/02/02,13:30,12.2,64,7.6,9
 2003/02/02,13:45,12.1,64.5,7.6,9
 2003/02/02,14:00,12,65,7.6,9
 2003/02/02,14:15,12.2,63,7.7,9
 2003/02/02,14:30,12.1,64,7.6,9
 2003/02/02,14:45,11.9,65.5,7.6,9
 2003/02/02,15:00,12.1,64,7.6,9
 2003/02/02,15:15,12,63,7.7,9
 2003/02/02,15:30,11.7,66,7.5,9
 2003/02/02,15:45,11.6,67,7.5,9
 2003/02/02,16:00,11.5,67,7.5,9
 2003/02/02,16:15,11.5,65,7.4,9
 2003/02/02,16:30,11.6,66,7.4,9
 2003/02/02,16:45,11.4,66.5,7.3,9
 2003/02/02,17:00,11.2,67,7.3,9
 2003/02/02,17:15,11.1,67,7.2,9
 2003/02/02,17:30,11,67,7.2,9
 2003/02/02,17:45,10.9,67,7.2,9
 2003/02/02,18:00,10.8,67,7.1,9
 2003/02/02,18:15,10.6,67,7,9
 2003/02/02,18:30,10.6,67,7,9
 2003/02/02,18:45,10.6,67,6.9,8.9
 2003/02/02,19:00,10.4,67,6.9,8.9
 2003/02/02,19:15,10.3,67,6.9,9
 2003/02/02,19:30,10.3,66,6.9,9
 2003/02/02,19:45,10.2,66,6.8,8.9
 2003/02/02,20:00,10.1,66,6.8,9
 2003/02/02,20:15,10.1,66,6.8,8.9
 2003/02/02,20:30,9.9,66,6.7,8.9
 2003/02/02,20:45,9.9,66,6.7,8.9
 2003/02/02,21:00,9.8,66,6.7,8.9
 2003/02/02,21:15,14.4,65,6.8,8.9
 2003/02/02,21:30,16.3,63,6.9,8.9
 2003/02/02,21:45,15.7,63,6.9,8.9
 2003/02/02,22:00,15.4,65,6.9,8.9
 2003/02/02,22:15,15.5,64.5,6.9,8.9
 2003/02/02,22:30,15.4,63,6.9,8.9
 2003/02/02,22:45,15.6,63.5,6.9,8.9
 2003/02/02,23:00,15.9,63,6.9,8.9
 2003/02/02,23:15,16.1,63,6.8,8.9
 2003/02/02,23:30,16.2,62,6.7,8.9
 2003/02/02,23:45,16.3,62,6.7,8.9
 2003/02/03, 0:00,16.6,61,6.8,8.9
 2003/02/03, 0:15,16.8,61,6.7,8.9
 2003/02/03, 0:30,16.9,58,6.7,8.9
 2003/02/03, 0:45,16.6,58.5,6.6,8.9
 2003/02/03, 1:00,15,61,6.6,8.9
 2003/02/03, 1:15,14.2,62.5,6.6,8.9
 2003/02/03, 1:30,13.7,63,6.6,8.9
 2003/02/03, 1:45,13.3,63,6.6,8.9
 2003/02/03, 2:00,12.9,63,6.6,8.9
 2003/02/03, 2:15,12.6,64,6.6,8.9
 2003/02/03, 2:30,12.4,64,6.5,8.9
 2003/02/03, 2:45,12.2,64,6.5,8.9
 2003/02/03, 3:00,11.9,64,6.5,8.9
 2003/02/03, 3:15,11.7,64,6.4,8.9
 2003/02/03, 3:30,11.5,65,6.4,8.9
 2003/02/03, 3:45,11.2,65,6.4,8.9
 2003/02/03, 4:00,11.2,65,6.4,8.9
 2003/02/03, 4:15,11,65,6.4,8.9
 2003/02/03, 4:30,10.9,65,6.3,8.8
 2003/02/03, 4:45,10.6,65,6.3,8.9
 2003/02/03, 5:00,10.6,65,6.3,8.9
 2003/02/03, 5:15,10.4,65,6.2,8.9
 2003/02/03, 5:30,10.4,68,6.2,8.8
 2003/02/03, 5:45,10.3,70,6.2,8.8
 2003/02/03, 6:00,10.2,71,6.2,8.8
 2003/02/03, 6:15,10.1,71.5,6.2,8.9
 2003/02/03, 6:30,10.1,70,6.2,8.8
 2003/02/03, 6:45,9.9,69,6.2,8.8
 2003/02/03, 7:00,9.8,68,6.1,8.8
 2003/02/03, 7:15,9.8,68,6.1,8.8
 2003/02/03, 7:30,12.3,69,6.1,8.8
 2003/02/03, 7:45,16.2,65.5,6.1,8.8
 2003/02/03, 8:00,14.5,62,6.1,8.8
 2003/02/03, 8:15,12.8,68,6.1,8.8
 2003/02/03, 8:30,13.2,70,6.1,8.8
 2003/02/03, 8:45,17.2,64,6.1,8.8
 2003/02/03, 9:00,17.8,63,6.1,8.8
 2003/02/03, 9:15,17.1,61.5,6.1,8.8
 2003/02/03, 9:30,16.8,61,6.1,8.8
 2003/02/03, 9:45,15.8,59,6.5,8.8
 2003/02/03,10:00,14.8,61,6.9,8.8
 2003/02/03,10:15,14.4,61,7.2,8.8
 2003/02/03,10:30,13.8,61,7.1,8.8
 2003/02/03,10:45,13.4,62.5,6.9,8.8
 2003/02/03,11:00,13,63,6.9,8.8
 2003/02/03,11:15,13.3,63,7.3,8.8
 2003/02/03,11:30,13.7,62,7.9,8.7
 2003/02/03,11:45,13.7,61,8.1,8.8
 2003/02/03,12:00,13.8,60,8.2,8.8
 2003/02/03,12:15,14.2,59,8.7,8.8
 2003/02/03,12:30,14.2,59,8.8,8.7
 2003/02/03,12:45,14.4,58.5,8.8,8.8
 2003/02/03,13:00,14.8,57,8.9,8.8
 2003/02/03,13:15,14.9,57,8.8,8.8
 2003/02/03,13:30,15.2,56,8.7,8.7
 2003/02/03,13:45,15.9,54.5,8.7,8.8
 2003/02/03,14:00,16.2,53,8.8,8.8
 2003/02/03,14:15,15.9,53.5,8.8,8.8
 2003/02/03,14:30,15.5,55,8.8,8.8
 2003/02/03,14:45,14.9,56,8.8,8.8
 2003/02/03,15:00,14.4,57,8.8,8.8
 2003/02/03,15:15,14.4,58,8.8,8.8
 2003/02/03,15:30,14.1,58,8.7,8.8
 2003/02/03,15:45,13.8,60,8.6,8.8
 2003/02/03,16:00,13.8,59,8.5,8.8
 2003/02/03,16:15,13.8,59.5,8.5,8.8
 2003/02/03,16:30,13.8,59,8.5,8.8
 2003/02/03,16:45,13.6,60,8.5,8.8
 2003/02/03,17:00,13.3,61,8.4,8.8
 2003/02/03,17:15,13.1,61,8.2,8.8
 2003/02/03,17:30,12.8,62,8.2,8.8
 2003/02/03,17:45,12.6,62,8.1,8.8
 2003/02/03,18:00,12.5,62,8.1,8.8
 2003/02/03,18:15,12.2,63,8.1,8.9
 2003/02/03,18:30,12.1,63,7.9,8.8
 2003/02/03,18:45,12.1,63,7.9,8.9
 2003/02/03,19:00,11.4,61,7.9,8.9
 2003/02/03,19:15,11.1,62,7.8,8.9
 2003/02/03,19:30,10.9,62,7.8,8.9
 2003/02/03,19:45,10.8,63,7.8,8.9
 2003/02/03,20:00,10.5,63,7.7,8.9
 2003/02/03,20:15,10.4,63.5,7.7,8.9
 2003/02/03,20:30,10.3,63,7.6,8.9
 2003/02/03,20:45,10.2,63,7.5,8.9
 2003/02/03,21:00,10.1,63,7.5,8.9
 2003/02/03,21:15,10,64,7.5,8.9
 2003/02/03,21:30,9.9,64,7.4,8.9
 2003/02/03,21:45,15.4,62,7.3,8.9
 2003/02/03,22:00,17.5,59,7.3,8.9
 2003/02/03,22:15,16.1,60.5,7.3,8.9
 2003/02/03,22:30,15.2,60,7.3,8.9
 2003/02/03,22:45,15.9,60,7.2,8.9
 2003/02/03,23:00,16.2,60,7.3,8.9
 2003/02/03,23:15,16.1,60,7.2,8.9
 2003/02/03,23:30,16.2,61,7.2,8.9
 2003/02/03,23:45,16.4,60,7.2,8.9
 2003/02/04, 0:00,16.4,59,7.1,8.9
 2003/02/04, 0:15,15.6,58.5,7.2,8.9
 2003/02/04, 0:30,14.1,62,7.2,8.9
 2003/02/04, 0:45,13.6,62,7.1,8.9
 2003/02/04, 1:00,13.1,62,7.1,8.9
 2003/02/04, 1:15,12.8,62,7,8.9
 2003/02/04, 1:30,12.5,62,7,8.9
 2003/02/04, 1:45,12.1,63.5,6.9,8.9
 2003/02/04, 2:00,11.7,64,6.9,8.9
 2003/02/04, 2:15,11.4,65,6.9,8.9
 2003/02/04, 2:30,11.3,65,6.9,8.9
 2003/02/04, 2:45,11.1,66,6.9,8.9
 2003/02/04, 3:00,10.9,66,6.9,8.9
 2003/02/04, 3:15,10.6,66,6.8,8.9
 2003/02/04, 3:30,10.5,66,6.8,8.9
 2003/02/04, 3:45,10.4,66,6.8,8.9
 2003/02/04, 4:00,10.2,67,6.7,8.9
 2003/02/04, 4:15,10.1,66.5,6.7,8.9
 2003/02/04, 4:30,9.9,66,6.6,8.8
 2003/02/04, 4:45,9.8,67,6.6,8.9
 2003/02/04, 5:00,9.6,67,6.6,8.9
 2003/02/04, 5:15,9.6,67,6.6,8.9
 2003/02/04, 5:30,9.4,67,6.5,8.9
 2003/02/04, 5:45,9.2,67,6.4,8.8
 2003/02/04, 6:00,9.1,67,6.4,8.8
 2003/02/04, 6:15,9,67,6.3,8.9
 2003/02/04, 6:30,8.9,67,6.4,8.9
 2003/02/04, 6:45,8.8,67,6.2,8.9
 2003/02/04, 7:00,8.6,67,6.2,8.8
 2003/02/04, 7:15,8.6,67,6.2,8.9
 2003/02/04, 7:30,9.8,72,6.2,8.8
 2003/02/04, 7:45,14.6,68.5,6.2,8.8
 2003/02/04, 8:00,17,66,6.1,8.8
 2003/02/04, 8:15,16.5,62,6.1,8.8
 2003/02/04, 8:30,15.9,62,6.2,8.8
 2003/02/04, 8:45,16,61,6.2,8.8
 2003/02/04, 9:00,18.5,59,6.4,8.8
 2003/02/04, 9:15,19.1,54.5,6.8,8.8
 2003/02/04, 9:30,18.6,55,7.3,8.8
 2003/02/04, 9:45,18.4,55.5,7.8,8.8
 2003/02/04,10:00,17.6,54,8.2,8.8
 2003/02/04,10:15,16.4,55.5,8.2,8.8
 2003/02/04,10:30,15.9,56,8.4,8.8
 2003/02/04,10:45,16,54.5,8.8,8.8
 2003/02/04,11:00,16.1,54,9.1,8.8
 2003/02/04,11:15,16.1,54,9.5,8.8
 2003/02/04,11:30,16.2,53,9.8,8.8
 2003/02/04,11:45,16.4,53,10.1,8.8
 2003/02/04,12:00,16.4,53,10.3,8.8
 2003/02/04,12:15,16.6,52,10.4,8.8
 2003/02/04,12:30,16.8,52,10.4,8.8
 2003/02/04,12:45,17,52,10.4,8.8
 2003/02/04,13:00,17.2,52,10.3,8.8
 2003/02/04,13:15,17.2,52,10.1,8.8
 2003/02/04,13:30,17.3,52,10.1,8.8
 2003/02/04,13:45,17.4,51.5,10,8.8
 2003/02/04,14:00,17.6,51,10,8.8
 2003/02/04,14:15,17,52.5,10,8.8
 2003/02/04,14:30,16.1,54,9.9,8.8
 2003/02/04,14:45,15.7,55,9.9,8.9
 2003/02/04,15:00,15.6,55,9.9,8.9
 2003/02/04,15:15,15.4,56,9.9,8.9
 2003/02/04,15:30,15.3,56,9.9,8.9
 2003/02/04,15:45,15.1,56.5,9.9,8.9
 2003/02/04,16:00,14.8,57,9.7,9
 2003/02/04,16:15,14.6,58,9.8,8.9
 2003/02/04,16:30,14.4,59,9.7,9
 2003/02/04,16:45,14.3,59.5,9.6,9
 2003/02/04,17:00,14.1,60,9.6,9
 2003/02/04,17:15,14.1,60,9.6,9
 2003/02/04,17:30,13.9,60,9.5,9.1
 2003/02/04,17:45,13.7,60,9.4,9.1
 2003/02/04,18:00,13.5,60,9.4,9.1
 2003/02/04,18:15,13.4,60,9.3,9.1
 2003/02/04,18:30,13.3,60,9.2,9.1
 2003/02/04,18:45,13.1,61,9.2,9.1
 2003/02/04,19:00,13,61,9.2,9.2
 2003/02/04,19:15,12.9,61,9.1,9.2
 2003/02/04,19:30,12.7,61,9.1,9.2
 2003/02/04,19:45,12.6,61,9,9.2
 2003/02/04,20:00,12.5,61,8.9,9.2
 2003/02/04,20:15,12.4,61,8.9,9.2
 2003/02/04,20:30,12.3,62,8.8,9.3
 2003/02/04,20:45,12.2,62,8.8,9.2
 2003/02/04,21:00,12.1,62,8.8,9.3
 2003/02/04,21:15,12,62,8.7,9.3
 2003/02/04,21:30,11.8,62,8.6,9.3
 2003/02/04,21:45,11.8,62,8.6,9.3
 2003/02/04,22:00,11.7,62,8.6,9.3
 2003/02/04,22:15,11.6,62,8.5,9.4
 2003/02/04,22:30,11.5,62,8.5,9.3
 2003/02/04,22:45,11.4,62,8.5,9.4
 2003/02/04,23:00,11.3,62,8.4,9.4
 2003/02/04,23:15,11.2,62,8.4,9.4
 2003/02/04,23:30,11.1,62,8.4,9.4
 2003/02/04,23:45,12.9,62.5,8.4,9.4
 2003/02/05, 0:00,16,61,8.4,9.4
 2003/02/05, 0:15,15.8,61.5,8.4,9.4
 2003/02/05, 0:30,15.4,62,8.4,9.4
 2003/02/05, 0:45,15.7,62,8.2,9.4
 2003/02/05, 1:00,15.9,60,8.2,9.4
 2003/02/05, 1:15,14.3,61,8.2,9.4
 2003/02/05, 1:30,13.6,63,8.2,9.4
 2003/02/05, 1:45,13.1,63,8.1,9.4
 2003/02/05, 2:00,12.9,63,8.1,9.4
 2003/02/05, 2:15,12.6,63,8.1,9.4
 2003/02/05, 2:30,12.4,63,7.9,9.4
 2003/02/05, 2:45,12.2,63,7.9,9.4
 2003/02/05, 3:00,12,63,7.9,9.4
 2003/02/05, 3:15,11.8,63.5,7.8,9.4
 2003/02/05, 3:30,11.6,63,7.8,9.5
 2003/02/05, 3:45,11.6,63,7.8,9.5
 2003/02/05, 4:00,11.3,64,7.7,9.5
 2003/02/05, 4:15,11.2,64,7.7,9.5
 2003/02/05, 4:30,11.1,64,7.6,9.5
 2003/02/05, 4:45,10.9,64,7.6,9.5
 2003/02/05, 5:00,10.9,64,7.5,9.5
 2003/02/05, 5:15,10.8,64,7.5,9.5
 2003/02/05, 5:30,10.6,64,7.4,9.5
 2003/02/05, 5:45,10.5,64,7.4,9.5
 2003/02/05, 6:00,10.4,64,7.3,9.5
 2003/02/05, 6:15,10.3,64,7.3,9.5
 2003/02/05, 6:30,10.2,65,7.3,9.5
 2003/02/05, 6:45,10.2,65,7.2,9.5
 2003/02/05, 7:00,10,65,7.2,9.5
 2003/02/05, 7:15,9.9,65,7.2,9.5
 2003/02/05, 7:30,12.6,67,7.1,9.5
 2003/02/05, 7:45,16.5,63.5,7.2,9.5
 2003/02/05, 8:00,14.6,61,7.2,9.5
 2003/02/05, 8:15,13.2,65.5,7.2,9.5
 2003/02/05, 8:30,12.8,65,7.2,9.5
 2003/02/05, 8:45,12.5,64.5,7.3,9.5
 2003/02/05, 9:00,12.4,64,7.5,9.5
 2003/02/05, 9:15,12.1,64,7.6,9.5
 2003/02/05, 9:30,11.9,64,7.6,9.5
 2003/02/05, 9:45,11.9,64,7.7,9.5
 2003/02/05,10:00,12,63,7.8,9.5
 2003/02/05,10:15,12.2,63,8.2,9.5
 2003/02/05,10:30,12.3,62,8.3,9.5
 2003/02/05,10:45,12.8,61,8.9,9.5
 2003/02/05,11:00,13.1,60,9.2,9.5
 2003/02/05,11:15,13.3,59,9.4,9.5
 2003/02/05,11:30,12.9,60,9.1,9.5
 2003/02/05,11:45,13.1,59,9.1,9.5
 2003/02/05,12:00,13.5,58,9.5,9.5
 2003/02/05,12:15,13.7,58,9.8,9.5
 2003/02/05,12:30,14.2,57,10.1,9.5
 2003/02/05,12:45,14,57.5,9.9,9.5
 2003/02/05,13:00,13.6,58,9.6,9.5
 2003/02/05,13:15,13.4,59,9.4,9.5
 2003/02/05,13:30,13.2,59,9.3,9.5
 2003/02/05,13:45,13.4,59,9.3,9.5
 2003/02/05,14:00,14.1,58,9.5,9.5
 2003/02/05,14:15,14.2,57,9.5,9.6
 2003/02/05,14:30,14,58,9.5,9.5
 2003/02/05,14:45,13.9,58,9.4,9.6
 2003/02/05,15:00,13.6,58,9.4,9.6
 2003/02/05,15:15,13.4,59,9.3,9.6
 2003/02/05,15:30,13.1,60,9.3,9.6
 2003/02/05,15:45,13.2,59.5,9.2,9.6
 2003/02/05,16:00,13.4,59,9.2,9.6
 2003/02/05,16:15,13.4,59,9.2,9.6
 2003/02/05,16:30,13.3,59,9.2,9.6
 2003/02/05,16:45,13,60,9.1,9.6
 2003/02/05,17:00,12.8,61,9,9.6
 2003/02/05,17:15,12.7,61,8.9,9.6
 2003/02/05,17:30,12.6,61,8.9,9.6
 2003/02/05,17:45,12.4,61.5,8.9,9.6
 2003/02/05,18:00,12.4,62,8.8,9.6
 2003/02/05,18:15,12.2,62,8.8,9.6
 2003/02/05,18:30,12.1,62,8.7,9.6
 2003/02/05,18:45,11.9,62.5,8.6,9.7
 2003/02/05,19:00,11.8,63,8.5,9.7
 2003/02/05,19:15,11.8,63,8.5,9.7
 2003/02/05,19:30,11.7,62,8.5,9.7
 2003/02/05,19:45,11.6,63,8.4,9.7
 2003/02/05,20:00,11.4,63,8.3,9.7
 2003/02/05,20:15,11.2,63,8.2,9.7
 2003/02/05,20:30,11.2,63,8.2,9.7
 2003/02/05,20:45,11.1,63,8.1,9.7
 2003/02/05,21:00,11,63,8.1,9.7
 2003/02/05,21:15,11,63,8.1,9.7
 2003/02/05,21:30,10.8,64,8.1,9.7
 2003/02/05,21:45,10.7,64,8,9.7
 2003/02/05,22:00,10.6,64,7.9,9.7
 2003/02/05,22:15,10.6,64,7.8,9.7
 2003/02/05,22:30,10.4,64,7.8,9.7
 2003/02/05,22:45,10.4,64,7.8,9.7
 2003/02/05,23:00,10.3,64,7.7,9.7
 2003/02/05,23:15,14.9,63.5,7.8,9.7
 2003/02/05,23:30,16.7,62,7.7,9.7
 2003/02/05,23:45,15.8,61.5,7.7,9.7
 2003/02/06, 0:00,15.5,61,7.7,9.7
 2003/02/06, 0:15,15.6,62,7.7,9.7
 2003/02/06, 0:30,15.7,62,7.7,9.7
 2003/02/06, 0:45,15.9,61.5,7.7,9.7
 2003/02/06, 1:00,16,62,7.6,9.7
 2003/02/06, 1:15,15.9,63,7.5,9.7
 2003/02/06, 1:30,14.9,63,7.5,9.7
 2003/02/06, 1:45,13.7,68,7.3,9.7
 2003/02/06, 2:00,13,69,7.3,9.7
 2003/02/06, 2:15,12.6,69.5,7.2,9.7
 2003/02/06, 2:30,12.2,69,7.2,9.7
 2003/02/06, 2:45,11.9,69,7.2,9.7
 2003/02/06, 3:00,11.7,69,7.2,9.7
 2003/02/06, 3:15,11.4,69,7.1,9.7
 2003/02/06, 3:30,11.2,69,7,9.7
 2003/02/06, 3:45,10.9,70,7,9.7
 2003/02/06, 4:00,10.8,70,7,9.7
 2003/02/06, 4:15,10.6,70,6.9,9.7
 2003/02/06, 4:30,10.5,70,6.9,9.7
 2003/02/06, 4:45,10.3,70,6.9,9.6
 2003/02/06, 5:00,10.2,70,6.9,9.6
 2003/02/06, 5:15,10.1,70,6.8,9.7
 2003/02/06, 5:30,9.9,70,6.8,9.7
 2003/02/06, 5:45,9.8,70,6.8,9.6
 2003/02/06, 6:00,9.6,70,6.7,9.7
 2003/02/06, 6:15,9.6,70,6.7,9.6
 2003/02/06, 6:30,9.5,70,6.6,9.6
 2003/02/06, 6:45,9.4,70,6.7,9.6
 2003/02/06, 7:00,9.4,70,6.6,9.6
 2003/02/06, 7:15,15.2,66.5,6.6,9.6
 2003/02/06, 7:30,17.7,61,6.5,9.6
 2003/02/06, 7:45,18,64.5,6.6,9.6
 2003/02/06, 8:00,15.7,62,6.6,9.6
 2003/02/06, 8:15,13.9,67,6.6,9.6
 2003/02/06, 8:30,13.1,68,6.5,9.6
 2003/02/06, 8:45,12.9,66.5,6.7,9.6
 2003/02/06, 9:00,12.8,66,6.9,9.6
 2003/02/06, 9:15,12.9,67,7.3,9.6
 2003/02/06, 9:30,13,67,7.8,9.6
 2003/02/06, 9:45,13.1,66.5,8.1,9.6
 2003/02/06,10:00,13.4,67,8.5,9.5
 2003/02/06,10:15,13.6,65.5,8.9,9.6
 2003/02/06,10:30,13.8,64,9.2,9.6
 2003/02/06,10:45,14,62.5,9.4,9.5
 2003/02/06,11:00,14.3,61,9.8,9.6
 2003/02/06,11:15,14.4,60.5,10.1,9.6
 2003/02/06,11:30,14.6,60,10.1,9.5
 2003/02/06,11:45,14.9,58.5,10.4,9.5
 2003/02/06,12:00,15.2,58,10.6,9.5
 2003/02/06,12:15,15.1,57.5,10.4,9.6
 2003/02/06,12:30,15.3,57,10.4,9.5
 2003/02/06,12:45,15.2,56.5,10.4,9.6
 2003/02/06,13:00,14.9,57,10.1,9.6
 2003/02/06,13:15,15,56.5,9.9,9.5
 2003/02/06,13:30,15.4,56,9.9,9.5
 2003/02/06,13:45,15.5,55.5,9.9,9.6
 2003/02/06,14:00,14.8,56,9.8,9.6
 2003/02/06,14:15,14.6,57.5,9.7,9.6
 2003/02/06,14:30,14.3,58,9.6,9.6
 2003/02/06,14:45,14.1,59.5,9.6,9.6
 2003/02/06,15:00,13.9,60,9.5,9.6
 2003/02/06,15:15,13.9,60,9.4,9.6
 2003/02/06,15:30,13.9,60,9.4,9.6
 2003/02/06,15:45,14,59,9.3,9.6
 2003/02/06,16:00,14.1,59,9.3,9.6
 2003/02/06,16:15,14,59,9.2,9.6
 2003/02/06,16:30,13.9,59,9.2,9.6
 2003/02/06,16:45,13.8,59.5,9.1,9.6
 2003/02/06,17:00,13.6,60,9,9.6
 2003/02/06,17:15,13.4,61,8.9,9.6
 2003/02/06,17:30,13.1,61,8.9,9.6
 2003/02/06,17:45,13,61,8.9,9.6
 2003/02/06,18:00,12.8,62,8.8,9.6
 2003/02/06,18:15,12.7,61,8.8,9.6
 2003/02/06,18:30,12.6,62,8.6,9.7
 2003/02/06,18:45,12.4,62,8.6,9.6
 2003/02/06,19:00,12.3,62,8.5,9.7
 2003/02/06,19:15,12.2,62,8.4,9.6
 2003/02/06,19:30,12.1,62,8.4,9.7
 2003/02/06,19:45,11.9,62,8.4,9.7
 2003/02/06,20:00,11.8,63,8.3,9.7
 2003/02/06,20:15,11.6,62.5,8.2,9.7
 2003/02/06,20:30,11.6,63,8.2,9.7
 2003/02/06,20:45,11.5,63,8.1,9.7
 2003/02/06,21:00,11.3,63,8.1,9.7
 2003/02/06,21:15,11.2,63,7.9,9.7
 2003/02/06,21:30,11.1,63,7.9,9.7
 2003/02/06,21:45,10.9,63,7.8,9.7
 2003/02/06,22:00,10.8,63,7.8,9.7
 2003/02/06,22:15,10.8,62.5,7.7,9.7
 2003/02/06,22:30,10.6,63,7.6,9.7
 2003/02/06,22:45,10.4,63,7.6,9.7
 2003/02/06,23:00,10.4,63,7.5,9.7
 2003/02/06,23:15,10.3,63,7.4,9.7
 2003/02/06,23:30,10.2,63,7.4,9.7
 2003/02/06,23:45,10.1,63,7.3,9.7
 2003/02/07, 0:00,9.9,63,7.2,9.7
 2003/02/07, 0:15,9.9,63.5,7.2,9.7
 2003/02/07, 0:30,9.7,63,7.1,9.7
 2003/02/07, 0:45,10,65,7.1,9.7
 2003/02/07, 1:00,15.5,60,7,9.7
 2003/02/07, 1:15,13.6,59.5,7,9.7
 2003/02/07, 1:30,11.8,65,7,9.6
 2003/02/07, 1:45,11.1,64,6.9,9.6
 2003/02/07, 2:00,10.7,64,6.9,9.6
 2003/02/07, 2:15,10.6,63,6.8,9.6
 2003/02/07, 2:30,10.3,63,6.8,9.6
 2003/02/07, 2:45,10.2,62.5,6.7,9.6
 2003/02/07, 3:00,10,62,6.6,9.6
 2003/02/07, 3:15,9.8,63,6.6,9.6
 2003/02/07, 3:30,9.6,63,6.6,9.6
 2003/02/07, 3:45,9.4,63,6.4,9.6
 2003/02/07, 4:00,9.4,63,6.4,9.6
 2003/02/07, 4:15,9.1,63,6.3,9.6
 2003/02/07, 4:30,9.1,63,6.4,9.6
 2003/02/07, 4:45,9,63,6.3,9.6
 2003/02/07, 5:00,8.8,64,6.3,9.5
 2003/02/07, 5:15,8.8,63,6.2,9.5
 2003/02/07, 5:30,8.7,63,6.2,9.5
 2003/02/07, 5:45,8.6,63,6.1,9.5
 2003/02/07, 6:00,8.4,64,6.1,9.5
 2003/02/07, 6:15,8.3,63.5,6,9.5
 2003/02/07, 6:30,8.2,64,5.9,9.5
 2003/02/07, 6:45,8.1,64,5.9,9.5
 2003/02/07, 7:00,8,63,5.9,9.4
 2003/02/07, 7:15,8,64,5.8,9.4
 2003/02/07, 7:30,8.2,65,5.8,9.4
 2003/02/07, 7:45,14.4,63.5,5.8,9.4
 2003/02/07, 8:00,16.9,62,5.9,9.4
 2003/02/07, 8:15,18.3,58,5.8,9.4
 2003/02/07, 8:30,17.4,59,5.8,9.4
 2003/02/07, 8:45,17,63.5,5.9,9.4
 2003/02/07, 9:00,16.1,63,6.1,9.3
 2003/02/07, 9:15,17,60,6.2,9.3
 2003/02/07, 9:30,17.5,60,6.6,9.3
 2003/02/07, 9:45,17.8,60,6.9,9.3
 2003/02/07,10:00,18.1,57,7.3,9.3
 2003/02/07,10:15,18.5,54,7.5,9.3
 2003/02/07,10:30,19.3,53,8.1,9.3
 2003/02/07,10:45,19.9,53.5,8.6,9.3
 2003/02/07,11:00,19.7,47,9.2,9.2
 2003/02/07,11:15,18.4,51,9.3,9.2
 2003/02/07,11:30,17.9,52,9.5,9.3
 2003/02/07,11:45,17.6,52,9.8,9.2
 2003/02/07,12:00,17.5,52,10,9.2
 2003/02/07,12:15,17.5,52,10.1,9.2
 2003/02/07,12:30,17.5,52,10.3,9.2
 2003/02/07,12:45,17.5,52,10.4,9.2
 2003/02/07,13:00,17.8,52,10.4,9.2
 2003/02/07,13:15,18,52,10.4,9.2
 2003/02/07,13:30,18.1,51,10.3,9.2
 2003/02/07,13:45,18.4,50.5,10.4,9.2
 2003/02/07,14:00,18.5,50,10.4,9.2
 2003/02/07,14:15,18.5,50,10.4,9.2
 2003/02/07,14:30,18.5,50,10.5,9.3
 2003/02/07,14:45,18.3,50,10.6,9.3
 2003/02/07,15:00,18,50,10.6,9.3
 2003/02/07,15:15,17.8,51.5,10.6,9.3
 2003/02/07,15:30,17.6,53,10.6,9.3
 2003/02/07,15:45,17.5,53,10.6,9.3
 2003/02/07,16:00,17.4,53,10.6,9.3
 2003/02/07,16:15,17.2,53.5,10.6,9.3
 2003/02/07,16:30,17.1,54,10.5,9.4
 2003/02/07,16:45,16.9,54.5,10.5,9.4
 2003/02/07,17:00,16.6,56,10.5,9.4
 2003/02/07,17:15,16.2,57.5,10.5,9.4
 2003/02/07,17:30,15.9,59,10.5,9.4
 2003/02/07,17:45,15.8,59,10.4,9.4
 2003/02/07,18:00,15.6,60,10.4,9.4
 2003/02/07,18:15,15.4,60,10.4,9.5
 2003/02/07,18:30,15.3,61,10.3,9.5
 2003/02/07,18:45,15.1,61,10.3,9.5
 2003/02/07,19:00,15,61,10.2,9.5
 2003/02/07,19:15,14.8,61,10.1,9.6
 2003/02/07,19:30,14.7,61,10.1,9.6
 2003/02/07,19:45,14.5,61,10,9.6
 2003/02/07,20:00,14.4,61,10,9.6
 2003/02/07,20:15,14.2,61,9.9,9.6
 2003/02/07,20:30,14.1,61,9.8,9.7
 2003/02/07,20:45,13.9,61,9.8,9.7
 2003/02/07,21:00,13.8,61,9.7,9.7
 2003/02/07,21:15,14.8,60.5,9.6,9.7
 2003/02/07,21:30,16.1,60,9.6,9.7
 2003/02/07,21:45,16.8,60.5,9.6,9.7
 2003/02/07,22:00,17.1,60,9.6,9.8
 2003/02/07,22:15,17.5,61,9.6,9.8
 2003/02/07,22:30,18,61,9.4,9.8
 2003/02/07,22:45,18.2,60.5,9.4,9.8
 2003/02/07,23:00,17.5,58,9.3,9.8
 2003/02/07,23:15,16.1,62,9.3,9.8
 2003/02/07,23:30,15.5,62,9.2,9.8
 2003/02/07,23:45,15.1,62,9.2,9.8
 2003/02/08, 0:00,14.8,62,9.1,9.8
 2003/02/08, 0:15,14.5,62,9.1,9.8
 2003/02/08, 0:30,14.3,62,9,9.9
 2003/02/08, 0:45,14.1,62,8.9,9.9
 2003/02/08, 1:00,13.9,62,8.9,9.9
 2003/02/08, 1:15,13.7,62,8.9,9.9
 2003/02/08, 1:30,13.5,63,8.8,9.9
 2003/02/08, 1:45,13.4,62.5,8.8,9.9
 2003/02/08, 2:00,13.1,63,8.7,9.9
 2003/02/08, 2:15,12.9,63,8.6,9.9
 2003/02/08, 2:30,12.8,63,8.6,9.9
 2003/02/08, 2:45,12.8,63,8.6,9.9
 2003/02/08, 3:00,12.5,63,8.5,9.9
 2003/02/08, 3:15,12.4,63,8.4,9.9
 2003/02/08, 3:30,12.3,62,8.4,9.9